星链-5507 (STARLINK-5507 )

导读

STARLINK-5507是美国太空探索技术公司(SpaceX)于2023年2月17日发射的星链(Starlink)低轨互联网通信卫星,属于星链星座组网的组成部分。星链计划旨在通过近地轨道卫星组网,为全球提供高速互联网接入服务,可覆盖偏远地区,支撑民用通信、商业航运航空乃至军事应用,但也引发了太空碎片、轨道资源等方面的争议。

基本信息
目录编号:
55638
目录名称:
STARLINK-5507
国际标识:
2023-021L
轨道中心:
EARTH
卫星名称:
星链-5507
卫星全名:
星链-5507 (STARLINK-5507 )
卫星状态:
在轨 (已飞行1303 天)
发射日期:
2023-02-17 UTC
国别 :
美国 (US)
星等 :
--
该卫星已列入 空间交会检测服务 Space Conjunction Data Service (SCDS) ,当前飞行风险评估等级: 无高风险
轨道信息
数据来源 国际轨道数据 AOE轨道数据
星历时间 2026-09-12T07:30:28+0800
16小时前
查看轨道信息
2026-09-06T22:00:00+0800
6天前
查看轨道信息
半长轴 6950.2km 6950.176km
偏心率 0.0002592 0.000264
轨道倾角 69.999° 70.000°
近地点辐角 268.828° 278.854°
升交点赤经 94.713° 108.320°
平近点角 91.258° 142.712°
近地点 570.261km 570.204km
远地点 573.865km 573.874km
周期 96.107分钟 96.107分钟
每日圈数 14.983279 14.983356
详细信息
固有亮度:
5
最大亮度:
2.5
卫星平台:
Starlink v1.5
覆盖范围:
全球
运营商:
太空探索技术公司
运营商所在国:
美国
制造商(研发单位):
太空探索技术公司
制造商所在国:
美国
使用方式:
暂无
卫星简介
星链(Starlink)计划是由太空探索技术公司(SpaceX)提出的一个巨型低轨卫星互联网星座项目,计划在2019年至2024年间在太空搭建由约1.2万颗卫星组成的“星链”网络,其中1584颗将部署在地球上空550千米处的近地轨道,并从2020年开始工作。该卫星仍在工作。
2D轨道图
3D轨道图
轨道高度分析图
轨道倾角分析图
轨道综合分析图
查看轨道综合分析图
与全量物体交会距离演化趋势
与全量物体交会风险概率演化趋势